sat.trackr.live / text

‹ back to catalog

RASSVET-3 4

NORAD 68363 · 2026-061D

PAYLOAD ACTIVE UNKNOWN

§ Identity

Operator
Country
CIS
Launch date
2026-03-23
Launch site
PLMSC
Launch vehicle
Mass (kg)
RCS (m²)

External: N2YO · Heavens-Above · Gunter

§ Orbital elements

Epoch: 2026-06-06T00:23:00.182976Z

Period
87.72 min
Inclination
82.2944°
Eccentricity
0.0009168
Mean motion
16.41665357 rev/d
Perigee alt
155.4 km
Apogee alt
167.4 km
Semi-major
6,539.5 km
B*
3.4339e-4
RAAN
23.3733°
Arg perigee
231.2805°
Mean anomaly
128.7676°
Rev number
1,187

§ Raw data

RASSVET-3 41 68363U 26061D   26157.01597434  .06244101 -11867-5  34339-3 0  99972 68363  82.2944  23.3733 0009168 231.2805 128.7676 16.41665357 11871

JSON: /api/v1/satellites/68363 · /tle

For live sub-satellite position, see the globe view (requires WebGL).

§ Visibility from observer

Set your observer location to see the next 7 days of passes ≥ 10°. The values pass through the URL so the page stays shareable.

No JS? Fill the form by hand. The geolocation button needs JavaScript.